Погода в Глазунове

Россия / Орловская область     53°19′23″N   36°29′05″E
темп.,
°C
ветер,
м/с
пор.,
м/с
влажн.,
%
обл.,
%
осадки,
мм/ч
давл.,
гПа
погр.,
м
16 апреля, пт
пт1600:00+10в4788100 0.9 1013171
03:00+10вюв358368 1.1 1014113
06:00+7вюв389088 0.0 1015157
09:00+11юв466989 0.0 1016530
12:00+14юв5854100 0.0 10161514
15:00+16юв6942100 0.2 10152402
18:00+14ю475096 0.0 1016347
21:00+10ююз116988 0.0 101710
17 апреля, сб
сб1700:00+10всв3369100 0.0 101848
03:00+9юв2574100 0.0 1018128
06:00+8ююв3683100 0.2 1018195
09:00+8з3387100 0.7 1018258
12:00+7зюз4695100 4.6 1018400
15:00+7з4591100 8.3 1019350
18:00+7з2389100 4.1 1018250
21:00+6зюз2295100 4.1 101833
18 апреля, вс
вс1800:00+6зюз2395100 0.1 101881
03:00+6з3798100 4.8 1017299
06:00+6с3789100 3.4 1015394
09:00+5ююз2294100 4.2 1014143
12:00+6ююв81387100 3.5 1018895
15:00+10ююв5862100 3.6 10191551
18:00+9в357399 0.3 1019352
21:00+7всв51089100 1.0 1020591
19 апреля, пн
пн1900:00+6св4993100 0.2 1020459
03:00+5св479199 0.2 1020314
06:00+5всв259585 0.3 1020189
09:00+7всв5789100 1.1 1021721
12:00+7в5789100 0.4 1021982
15:00+8в5881100 0.9 10211178
18:00+7всв6118598 0.4 1020679
21:00+6всв6128873 0.4 1020535
20 апреля, вт
вт2000:00+6всв61188100 0.0 1019599
03:00+6всв71389100 0.1 1018755
06:00+5всв91486100 0.1 1016856
09:00+5всв101687100 0.1 1014927
12:00+4всв111990100 1.8 1010948
15:00+2всв112197100 11.8 10061072
18:00+5вюв122191100 5.4 10021120
21:00+7вюв91797100 5.8 1003655